{"data":{"norad_id":65032,"intl_designator":"2025-161T","name":"STARLINK-34656","alt_names":[],"object_type":"PAYLOAD","status":"ACTIVE","operator":null,"country":"US","launch_date":"2025-07-30","launch_site_code":"AFWTR","launch_vehicle":null,"mission":null,"orbit_class":"UNKNOWN","rcs_meters":null,"size_class":null,"mass_kg":null,"dimensions":null,"purposes":["comms"],"wikipedia_slug":null,"has_3d_model":false,"image_url":null,"decayed_at":null,"tle_current":{"epoch":"2026-09-19T22:11:50.694720Z","epoch_age_seconds":173907,"freshness":"STALE","line1":"1 65032U 25161T   26262.92489230  .00019828  00000+0  59623-3 0  9991","line2":"2 65032  53.1571 110.1917 0000855  87.8726 272.2374 15.34410465 65096","mean_motion":15.34410465,"eccentricity":8.55e-5,"inclination_deg":53.1571,"raan_deg":110.1917,"arg_perigee_deg":87.8726,"mean_anomaly_deg":272.2374,"bstar":0.00059623,"rev_number":6509,"period_min":93.847118020014,"perigee_km":462.08724701734,"apogee_km":463.25702537963,"semimajor_km":6840.8091361985,"source":"CELESTRAK","updated_at":"2026-09-21T09:00:35.495144Z"}}}